GW3251 Weather Reports


time (UTC)temp
C
wind
direction
speed
KPH
gust
KPH
rain 1hr
cm
rain 24hr
cm
rain mn
cm
humidity
%
barometer
mb
20260509211549 32 352 0.0 14.5 0.00 0.00 0.00 60 1008.1
20260509211038 32 0 3.2 14.5 0.00 0.00 0.00 61 1008.2
20260509210540 32 347 0.0 6.4 0.00 0.00 0.00 60 1008.3
20260509210051 32 0 0.0 1.6 0.00 0.00 0.00 59 1008.2
20260509205536 32 0 0.0 1.6 0.00 0.00 0.00 64 1008.1
20260509205036 32 0 0.0 12.9 0.00 0.00 0.00 60 1008.1
20260509204547 32 0 0.0 12.9 0.00 0.00 0.00 58 1008.3
20260509204036 32 0 0.0 14.5 0.00 0.00 0.00 58 1008.4
20260509203539 32 0 0.0 14.5 0.00 0.00 0.00 60 1008.5
20260509203059 32 0 0.0 14.5 0.00 0.00 0.00 61 1008.6
20260509202536 32 0 0.0 12.9 0.00 0.00 0.00 58 1008.8
20260509202037 32 0 0.0 9.7 0.00 0.00 0.00 59 1008.7
20260509201548 32 0 0.0 9.7 0.00 0.00 0.00 63 1008.8
20260509201039 32 0 0.0 6.4 0.00 0.00 0.00 63 1009.0
20260509200541 32 0 0.0 4.8 0.00 0.00 0.00 58 1008.9
20260509200046 32 0 0.0 1.6 0.00 0.00 0.00 64 1009.1
20260509195541 31 0 0.0 6.4 0.00 0.00 0.00 62 1008.9
20260509195040 31 0 0.0 8.0 0.00 0.00 0.00 66 1009.0
20260509194550 31 0 1.6 9.7 0.00 0.00 0.00 67 1009.1
20260509194037 31 0 0.0 9.7 0.00 0.00 0.00 65 1008.9
20260509193540 31 0 0.0 9.7 0.00 0.00 0.00 64 1009.1
20260509193051 31 0 0.0 3.2 0.00 0.00 0.00 66 1009.3
20260509192536 30 0 0.0 8.0 0.00 0.00 0.00 70 1009.5
20260509192041 30 0 0.0 8.0 0.00 0.00 0.00 70 1009.4
20260509191559 31 0 0.0 6.4 0.00 0.00 0.00 66 1009.6
20260509191036 30 0 0.0 6.4 0.00 0.00 0.00 66 1009.8
20260509190541 30 0 0.0 1.6 0.00 0.00 0.00 68 1009.8
20260509190055 31 0 0.0 11.3 0.00 0.00 0.00 66 1009.9
20260509185539 30 0 1.6 11.3 0.00 0.00 0.00 71 1009.8
20260509185038 30 0 0.0 0.0 0.00 0.00 0.00 70 1010.0
20260509184555 30 0 0.0 11.3 0.00 0.00 0.00 72 1010.0
20260509184037 30 0 1.6 11.3 0.00 0.00 0.00 72 1010.0
20260509183537 30 0 0.0 11.3 0.00 0.00 0.00 73 1010.1
20260509183055 30 290 0.0 11.3 0.00 0.00 0.00 72 1010.2
20260509182537 29 0 0.0 0.0 0.00 0.00 0.00 77 1010.3
20260509182036 30 0 0.0 8.0 0.00 0.00 0.00 77 1010.2
20260509181546 28 0 0.0 8.0 0.00 0.00 0.00 76 1010.3
20260509181037 30 0 0.0 8.0 0.00 0.00 0.00 75 1010.5
20260509180537 29 0 0.0 1.6 0.00 0.00 0.00 75 1010.6
20260509180049 29 0 0.0 6.4 0.00 0.00 0.00 75 1010.6
20260509175536 29 0 0.0 6.4 0.00 0.00 0.00 73 1010.7
20260509175036 29 0 0.0 1.6 0.00 0.00 0.00 76 1010.7
20260509174603 28 0 0.0 0.0 0.00 0.00 0.00 78 1010.7
20260509174036 28 0 0.0 0.0 0.00 0.00 0.00 79 1010.8
20260509173535 27 0 0.0 1.6 0.00 0.00 0.00 82 1010.9
20260509173052 26 0 0.0 1.6 0.00 0.00 0.00 85 1011.1
20260509172539 26 0 0.0 0.0 0.00 0.00 0.00 84 1011.0
20260509172036 26 0 0.0 1.6 0.00 0.00 0.00 85 1011.2
20260509171547 26 0 0.0 1.6 0.00 0.00 0.00 84 1011.3
20260509171036 26 0 0.0 0.0 0.00 0.00 0.00 85 1011.2
20260509170536 26 0 0.0 0.0 0.00 0.00 0.00 85 1011.1
20260509170046 26 0 0.0 0.0 0.00 0.00 0.00 87 1011.1
20260509165536 25 0 0.0 0.0 0.00 0.00 0.00 86 1011.0
20260509165040 25 0 0.0 0.0 0.00 0.00 0.00 87 1011.1
20260509164545 25 0 0.0 0.0 0.00 0.00 0.00 87 1011.2
20260509164037 25 0 0.0 0.0 0.00 0.00 0.00 87 1011.1
20260509163536 25 0 0.0 0.0 0.00 0.00 0.00 87 1011.1
20260509163047 25 0 0.0 0.0 0.00 0.00 0.00 88 1011.1
20260509162536 25 0 0.0 0.0 0.00 0.00 0.00 88 1011.2
20260509162036 25 0 0.0 0.0 0.00 0.00 0.00 88 1011.2
20260509161549 25 0 0.0 0.0 0.00 0.00 0.00 89 1011.2
20260509161038 25 0 0.0 0.0 0.00 0.00 0.00 88 1011.3
20260509160539 25 0 0.0 0.0 0.00 0.00 0.00 88 1011.3
20260509160050 25 0 0.0 0.0 0.00 0.00 0.00 89 1011.1
20260509155537 25 0 0.0 0.0 0.00 0.00 0.00 88 1011.1
20260509155036 25 0 0.0 0.0 0.00 0.00 0.00 88 1011.2
20260509154553 25 0 0.0 0.0 0.00 0.00 0.00 89 1011.2
20260509154036 24 0 0.0 0.0 0.00 0.00 0.00 90 1011.3
20260509153536 24 0 0.0 0.0 0.00 0.00 0.00 90 1011.3
20260509153055 24 0 0.0 0.0 0.00 0.00 0.00 90 1011.4
20260509152539 24 0 0.0 0.0 0.00 0.00 0.00 90 1011.3
20260509152037 24 0 0.0 0.0 0.00 0.00 0.00 90 1011.3
20260509151548 24 0 0.0 0.0 0.00 0.00 0.00 90 1011.3
20260509151037 24 0 0.0 0.0 0.00 0.00 0.00 89 1011.2
20260509150540 25 0 0.0 16.1 0.00 0.00 0.00 89 1011.1
20260509150051 25 0 0.0 16.1 0.00 0.00 0.00 89 1010.8
20260509145536 25 234 1.6 16.1 0.00 0.00 0.00 89 1010.3
20260509145037 25 0 1.6 16.1 0.00 0.00 0.00 90 1010.2
20260509144550 25 0 0.0 16.1 0.00 0.00 0.00 90 1010.0
20260509144037 25 235 1.6 16.1 0.00 0.00 0.00 90 1009.9
20260509143537 25 0 1.6 16.1 0.00 0.00 0.00 89 1010.0
20260509143047 25 0 1.6 14.5 0.00 0.00 0.00 90 1010.1
20260509142536 25 0 0.0 14.5 0.00 0.00 0.00 92 1010.0
20260509142036 24 0 0.0 12.9 0.00 0.00 0.00 93 1009.9
20260509141545 23 0 0.0 12.9 0.00 0.00 0.00 93 1010.1
20260509141038 23 0 0.0 0.0 0.00 0.00 0.00 93 1010.2
20260509140536 23 0 0.0 11.3 0.00 0.00 0.00 93 1010.2
20260509140055 23 0 0.0 11.3 0.00 0.00 0.00 94 1010.3
20260509135539 23 209 0.0 6.4 0.00 0.00 0.00 94 1010.5
20260509135037 23 0 0.0 9.7 0.00 0.00 0.00 94 1010.4
20260509134548 23 0 0.0 9.7 0.00 0.00 0.00 94 1010.3
20260509134036 23 0 0.0 8.0 0.00 0.00 0.00 94 1010.3
20260509133537 23 0 0.0 0.0 0.00 0.00 0.00 94 1010.4
20260509133050 23 0 0.0 4.8 0.00 0.00 0.00 94 1010.7
20260509132536 22 0 0.0 4.8 0.00 0.00 0.00 94 1010.4
20260509132036 22 0 0.0 0.0 0.00 0.00 0.00 94 1010.6
20260509131549 22 0 0.0 0.0 0.00 0.00 0.00 94 1010.4
20260509131036 22 0 0.0 0.0 0.00 0.00 0.00 94 1010.3
20260509130536 22 0 0.0 1.6 0.00 0.00 0.00 94 1010.2
20260509130100 22 0 0.0 3.2 0.00 0.00 0.00 94 1010.3
20260509125536 22 0 0.0 4.8 0.00 0.00 0.00 94 1010.2
20260509125036 22 0 0.0 4.8 0.00 0.00 0.00 94 1010.1
20260509124554 22 0 0.0 0.0 0.00 0.00 0.00 94 1010.0
20260509124038 22 0 0.0 0.0 0.00 0.00 0.00 94 1010.3
20260509123541 22 0 0.0 0.0 0.00 0.00 0.00 94 1010.4
20260509123044 22 0 0.0 0.0 0.00 0.00 0.00 94 1010.5
20260509122538 22 0 0.0 0.0 0.00 0.00 0.00 94 1010.7
20260509122038 22 0 0.0 0.0 0.00 0.00 0.00 94 1010.7
20260509121557 22 0 0.0 0.0 0.00 0.00 0.00 94 1010.6
20260509121039 22 0 0.0 0.0 0.00 0.00 0.00 94 1010.8
20260509120542 22 0 0.0 0.0 0.00 0.00 0.00 94 1010.7
20260509120051 22 0 0.0 0.0 0.00 0.00 0.00 94 1010.3
20260509115537 22 0 0.0 0.0 0.00 0.00 0.00 94 1010.1
20260509115037 22 0 0.0 0.0 0.00 0.00 0.00 94 1010.1
20260509114557 22 0 0.0 0.0 0.00 0.00 0.00 94 1010.4
20260509114038 22 0 0.0 4.8 0.00 0.00 0.00 94 1010.4
20260509113538 22 0 0.0 4.8 0.00 0.00 0.00 94 1010.6
20260509113053 22 0 0.0 4.8 0.00 0.00 0.00 94 1010.4
20260509112538 22 0 0.0 1.6 0.00 0.00 0.00 93 1010.5
20260509112038 22 0 0.0 1.6 0.00 0.00 0.00 94 1010.3
20260509111548 22 0 0.0 0.0 0.00 0.00 0.00 94 1010.3
20260509111038 22 0 0.0 0.0 0.00 0.00 0.00 94 1010.3
20260509110537 22 0 0.0 0.0 0.00 0.00 0.00 94 1010.4
20260509110050 22 0 0.0 0.0 0.00 0.00 0.00 93 1010.4
20260509105542 22 0 0.0 0.0 0.00 0.00 0.00 93 1010.4
20260509105038 22 0 0.0 0.0 0.00 0.00 0.00 93 1010.6
20260509104551 22 0 0.0 0.0 0.00 0.00 0.00 93 1010.5
20260509104037 22 0 0.0 0.0 0.00 0.00 0.00 93 1010.7
20260509103537 22 0 0.0 0.0 0.00 0.00 0.00 93 1010.8
20260509103059 22 0 0.0 0.0 0.00 0.00 0.00 93 1010.6
20260509102538 22 0 0.0 0.0 0.00 0.00 0.00 93 1010.8
20260509102039 22 0 0.0 0.0 0.00 0.00 0.00 93 1010.8
20260509101559 22 0 0.0 0.0 0.00 0.00 0.00 93 1010.8
20260509101039 22 0 0.0 0.0 0.00 0.00 0.00 93 1010.6
20260509100538 22 0 0.0 0.0 0.00 0.00 0.00 93 1010.4
20260509100047 22 0 0.0 0.0 0.00 0.00 0.00 93 1010.3
20260509095539 22 0 0.0 0.0 0.00 0.00 0.00 93 1010.0
20260509095038 22 0 0.0 0.0 0.00 0.00 0.00 93 1009.9
20260509094559 22 0 0.0 0.0 0.00 0.00 0.00 93 1009.9
20260509094039 22 0 0.0 0.0 0.00 0.00 0.00 93 1010.0
20260509093537 22 0 0.0 0.0 0.00 0.00 0.00 93 1010.0
20260509093050 22 0 0.0 0.0 0.00 0.00 0.00 93 1010.1
20260509092536 22 0 0.0 0.0 0.00 0.00 0.00 93 1010.1
20260509092036 22 0 0.0 0.0 0.00 0.00 0.00 93 1010.0
20260509091545 22 0 0.0 0.0 0.00 0.00 0.00 93 1009.9
20260509091039 22 0 0.0 0.0 0.00 0.00 0.00 93 1009.9
20260509090540 22 0 0.0 0.0 0.00 0.00 0.00 93 1010.0
20260509090058 22 0 0.0 0.0 0.00 0.00 0.00 93 1010.2
20260509085537 22 0 0.0 0.0 0.00 0.00 0.00 93 1010.2
20260509085036 22 0 0.0 0.0 0.00 0.00 0.00 93 1010.2
20260509084548 22 0 0.0 0.0 0.00 0.00 0.00 93 1010.4
20260509084035 22 0 0.0 0.0 0.00 0.00 0.00 93 1010.7
20260509083536 22 0 0.0 0.0 0.00 0.00 0.00 93 1010.7
20260509083056 22 0 0.0 0.0 0.00 0.00 0.00 93 1010.6
20260509082536 22 0 0.0 0.0 0.00 0.00 0.00 93 1010.6
20260509082037 22 0 0.0 0.0 0.00 0.00 0.00 93 1010.4
20260509081548 22 0 0.0 0.0 0.00 0.00 0.00 93 1010.3
20260509081037 22 0 0.0 0.0 0.00 0.00 0.00 93 1010.3
20260509080536 22 0 0.0 0.0 0.00 0.00 0.00 93 1010.4
20260509080053 22 0 0.0 0.0 0.00 0.00 0.00 93 1010.2
20260509075536 22 0 0.0 0.0 0.00 0.00 0.00 93 1010.3
20260509075036 22 0 0.0 0.0 0.00 0.00 0.00 93 1010.4
20260509074551 22 0 0.0 0.0 0.00 0.00 0.00 93 1010.3
20260509074036 22 0 0.0 0.0 0.00 0.00 0.00 93 1010.5
20260509073539 22 0 0.0 0.0 0.00 0.00 0.00 93 1010.6
20260509073050 22 0 0.0 0.0 0.00 0.00 0.00 93 1010.9
20260509072537 22 0 0.0 0.0 0.00 0.00 0.00 93 1010.9
20260509072036 22 0 0.0 0.0 0.00 0.00 0.00 93 1010.7
20260509071556 22 0 0.0 0.0 0.00 0.00 0.00 93 1010.8
20260509071037 22 0 0.0 0.0 0.00 0.00 0.00 92 1010.6
20260509070537 22 0 0.0 0.0 0.00 0.00 0.00 92 1010.7
20260509070046 22 0 0.0 0.0 0.00 0.00 0.00 92 1010.7
20260509065536 22 0 0.0 0.0 0.00 0.00 0.00 92 1010.6
20260509065036 22 0 0.0 0.0 0.00 0.00 0.00 92 1010.6
20260509064548 22 0 0.0 4.8 0.00 0.00 0.00 92 1010.5
20260509064041 22 0 0.0 4.8 0.00 0.00 0.00 92 1010.3
20260509063538 22 0 0.0 9.7 0.00 0.00 0.00 92 1010.4
20260509063049 22 0 0.0 12.9 0.00 0.00 0.00 92 1010.2
20260509062539 22 0 0.0 12.9 0.00 0.00 0.00 92 1010.2
20260509062038 22 0 0.0 8.0 0.00 0.00 0.00 92 1010.4
20260509061552 22 0 0.0 1.6 0.00 0.00 0.00 92 1010.4
20260509061038 22 0 0.0 9.7 0.00 0.00 0.00 92 1010.6
20260509060538 22 0 0.0 9.7 0.00 0.00 0.00 92 1010.6
20260509060106 22 0 0.0 1.6 0.00 0.00 0.00 92 1010.5
20260509055538 22 0 0.0 12.9 0.00 0.00 0.00 92 1010.7
20260509055037 22 0 0.0 12.9 0.00 0.00 0.00 92 1010.6
20260509054548 22 0 0.0 12.9 0.00 0.00 0.00 92 1010.5
20260509054045 22 0 0.0 12.9 0.00 0.00 0.00 92 1010.3
20260509053539 22 165 0.0 11.3 0.00 0.00 0.00 92 1010.3
20260509053110 22 0 0.0 11.3 0.00 0.00 0.00 92 1010.2
20260509052542 22 0 0.0 0.0 0.00 0.00 0.00 92 1010.2
20260509052040 22 0 0.0 8.0 0.00 0.00 0.00 92 1010.2
20260509051551 22 0 0.0 9.7 0.00 0.00 0.00 92 1010.4
20260509051038 22 0 0.0 9.7 0.00 0.00 0.00 92 1010.1
20260509050538 22 0 0.0 12.9 0.00 0.00 0.00 92 1010.2
20260509050057 22 143 0.0 12.9 0.00 0.00 0.00 91 1010.2
20260509045538 22 146 1.6 14.5 0.00 0.00 0.00 91 1010.2
20260509045038 22 0 0.0 14.5 0.00 0.00 0.00 91 1010.2
20260509044616 22 0 1.6 14.5 0.00 0.00 0.00 91 1010.2
20260509044037 22 160 1.6 12.9 0.00 0.00 0.00 91 1010.2
20260509043538 22 0 0.0 14.5 0.00 0.00 0.00 91 1010.2
20260509043108 22 0 3.2 14.5 0.00 0.00 0.00 91 1010.1
20260509042537 22 0 0.0 12.9 0.00 0.00 0.00 91 1010.1
20260509042039 22 0 0.0 14.5 0.00 0.00 0.00 91 1010.0
20260509041551 22 0 0.0 14.5 0.00 0.00 0.00 91 1010.0
20260509041038 22 0 0.0 14.5 0.00 0.00 0.00 91 1009.9
20260509040538 22 0 0.0 16.1 0.00 0.00 0.00 91 1009.9
20260509040047 22 0 0.0 16.1 0.00 0.00 0.00 90 1009.8
20260509035538 22 0 3.2 17.7 0.00 0.00 0.00 90 1009.9
20260509035038 23 0 4.8 17.7 0.00 0.00 0.00 90 1010.2
20260509034550 23 0 1.6 17.7 0.00 0.00 0.00 90 1010.1
20260509034038 23 0 0.0 14.5 0.00 0.00 0.00 90 1010.1
20260509033540 23 176 0.0 9.7 0.00 0.00 0.00 90 1010.1
20260509033046 23 0 0.0 12.9 0.00 0.00 0.00 90 1010.1
20260509032537 23 157 1.6 14.5 0.00 0.00 0.00 90 1010.1
20260509032037 23 169 0.0 14.5 0.00 0.00 0.00 90 1010.0
20260509031559 23 0 0.0 8.0 0.00 0.00 0.00 90 1010.0
20260509031037 23 0 0.0 6.4 0.00 0.00 0.00 90 1009.8
20260509030537 23 0 0.0 6.4 0.00 0.00 0.00 90 1009.7
20260509030110 23 0 0.0 0.0 0.00 0.00 0.00 90 1009.7
20260509025536 23 0 0.0 4.8 0.00 0.00 0.00 90 1009.8
20260509025040 23 0 0.0 4.8 0.00 0.00 0.00 90 1009.7
20260509024550 23 0 0.0 1.6 0.00 0.00 0.00 90 1009.7
20260509024037 23 0 0.0 0.0 0.00 0.00 0.00 90 1009.6
20260509023538 23 0 0.0 0.0 0.00 0.00 0.00 90 1009.7
20260509023056 23 0 0.0 0.0 0.00 0.00 0.00 90 1009.6
20260509022536 23 0 0.0 0.0 0.00 0.00 0.00 90 1009.5
20260509022037 23 0 0.0 0.0 0.00 0.00 0.00 90 1009.5
20260509021550 23 0 0.0 0.0 0.00 0.00 0.00 90 1009.6
20260509021040 23 0 0.0 0.0 0.00 0.00 0.00 90 1009.6
20260509020537 23 0 0.0 0.0 0.00 0.00 0.00 90 1009.5
20260509020055 22 0 0.0 0.0 0.00 0.00 0.00 90 1009.5
20260509015537 23 0 0.0 0.0 0.00 0.00 0.00 90 1009.5
20260509015037 23 0 0.0 0.0 0.00 0.00 0.00 90 1009.3
20260509014555 23 0 0.0 0.0 0.00 0.00 0.00 90 1009.4
20260509014037 23 0 0.0 0.0 0.00 0.00 0.00 90 1009.2
20260509013536 23 0 0.0 0.0 0.00 0.00 0.00 89 1009.4
20260509013059 23 0 0.0 0.0 0.00 0.00 0.00 89 1009.5
20260509012537 23 0 0.0 0.0 0.00 0.00 0.00 89 1009.4
20260509012036 23 0 0.0 0.0 0.00 0.00 0.00 89 1009.3
20260509011554 23 0 0.0 0.0 0.00 0.00 0.00 88 1009.2
20260509011036 23 0 0.0 0.0 0.00 0.00 0.00 88 1009.1
20260509010537 23 0 0.0 0.0 0.00 0.00 0.00 88 1009.1
20260509010046 23 0 0.0 0.0 0.00 0.00 0.00 87 1009.1
20260509005537 23 0 0.0 14.5 0.00 0.00 0.00 87 1008.9
20260509005037 24 0 0.0 14.5 0.00 0.00 0.00 87 1008.9
20260509004608 24 0 0.0 1.6 0.00 0.00 0.00 87 1008.9
20260509004037 24 0 0.0 4.8 0.00 0.00 0.00 87 1008.8
20260509003537 24 0 0.0 4.8 0.00 0.00 0.00 87 1009.0
20260509003053 24 0 0.0 1.6 0.00 0.00 0.00 87 1008.9
20260509002537 24 0 0.0 3.2 0.00 0.00 0.00 86 1009.0
20260509002036 24 0 0.0 14.5 0.00 0.00 0.00 86 1009.0
20260509001545 24 0 0.0 14.5 0.00 0.00 0.00 86 1009.0
20260509001038 25 122 0.0 11.3 0.00 0.00 0.00 86 1009.1
20260509000537 25 0 0.0 9.7 0.00 0.00 0.00 85 1009.0
20260509000051 25 0 0.0 9.7 0.00 0.00 0.00 86 1009.0
20260508235536 25 0 0.0 9.7 0.00 0.00 0.00 85 1009.0
20260508235037 25 0 0.0 12.9 0.00 0.00 0.00 84 1008.9
20260508234548 25 0 0.0 12.9 0.00 0.00 0.00 84 1008.9
20260508234037 25 0 0.0 14.5 0.00 0.00 0.00 84 1008.9
20260508233537 25 0 3.2 14.5 0.00 0.00 0.00 84 1008.8
20260508233048 25 0 0.0 12.9 0.00 0.00 0.00 84 1008.7
20260508232539 25 0 0.0 12.9 0.00 0.00 0.00 83 1008.9
20260508232036 26 0 0.0 8.0 0.00 0.00 0.00 83 1009.0
20260508231547 26 0 0.0 11.3 0.00 0.00 0.00 82 1008.8
20260508231036 26 0 1.6 14.5 0.00 0.00 0.00 83 1008.9
20260508230536 26 0 1.6 14.5 0.00 0.00 0.00 84 1008.8
20260508230045 25 0 0.0 0.0 0.00 0.00 0.00 85 1008.9
20260508225536 25 0 0.0 1.6 0.00 0.00 0.00 86 1009.3
20260508225039 25 0 0.0 1.6 0.00 0.00 0.00 85 1009.5
20260508224631 25 0 0.0 9.7 0.00 0.00 0.00 84 1009.4
20260508224036 25 0 0.0 9.7 0.00 0.00 0.00 84 1009.3
20260508223536 25 150 0.0 8.0 0.00 0.00 0.00 84 1009.3
20260508223054 25 0 0.0 8.0 0.00 0.00 0.00 83 1009.4
20260508222536 25 161 0.0 1.6 0.00 0.00 0.00 82 1009.4
20260508222037 26 0 0.0 9.7 0.00 0.00 0.00 82 1009.3
20260508221548 26 0 0.0 9.7 0.00 0.00 0.00 80 1009.4
20260508221037 26 0 0.0 1.6 0.00 0.00 0.00 82 1009.2
20260508220536 26 0 0.0 0.0 0.00 0.00 0.00 82 1009.2
20260508220052 26 0 0.0 1.6 0.00 0.00 0.00 81 1009.3
20260508215536 26 0 0.0 1.6 0.00 0.00 0.00 81 1009.3
20260508215036 26 0 0.0 4.8 0.00 0.00 0.00 80 1009.5
20260508214545 26 0 0.0 4.8 0.00 0.00 0.00 80 1009.5
20260508214037 26 0 0.0 4.8 0.00 0.00 0.00 80 1009.6
20260508213536 26 0 0.0 0.0 0.00 0.00 0.00 81 1009.5
20260508213049 26 0 0.0 8.0 0.00 0.00 0.00 81 1009.6
20260508212537 26 0 0.0 9.7 0.00 0.00 0.00 80 1009.6
20260508212038 26 0 0.0 9.7 0.00 0.00 0.00 78 1009.5